Flag for Estonia Weather past 2 weeks in Tartu, Estonia

Now
48 °F

Cool.


Feels Like: 48 °F
Forecast: 41 / 67 °F
Wind: No wind

Location: Tartu/Ulenurme

Current Time: Sep 17, 2014 at 11:02:08 PM

Latest Report: Sep 17, 2014 at 9:50 PM


Visibility: N/A

Pressure: 30.33 "Hg

Humidity: 87%

Dew point: 45 °F

Location of TartuLocation

Historic Weather in Tartu — Graph

°F

Tartu temperature yesterday

Maximum temperature yesterday: 63 °F (at 3:50 PM)
Minimum temperature yesterday: 41 °F (at 5:50 AM)
Average temperature yesterday: 51 °F

Past Weeks' High & Low Weather Summary

 TemperatureHumidityPressure
High73 °F (Sep 7, 5:50 PM)100% (Sep 10, 8:50 AM)30.45 "Hg (Sep 10, 8:50 AM)
Low36 °F (Sep 15, 5:50 AM)43% (Sep 17, 4:50 PM)29.92 "Hg (Sep 9, 9:50 PM)
Average57 °F79%30.24 "Hg
* Reported Sep 2 9:50 PM — Sep 17 9:50 PM, Tartu, Weather by CustomWeather, © 2014

Note: Actual official high and low records may vary slightly from our data, if they occured in-between our weather recording intervals... More about our weather records

Advertising

Tartu weather history for previous 24 hours

 ConditionsComfort  
Time TempWeatherWind HumidityBarometerVisibility
9:50 PM
Sep 17
48 °FCool.No wind87%30.33 "HgN/A
8:50 PM52 °FCool.No wind82%30.33 "HgN/A
7:50 PM55 °FCool.No wind72%30.33 "HgN/A
6:50 PM63 °FSunny.2 mph56%30.33 "Hg10 mi
5:50 PM64 °FSunny.6 mph49%30.33 "Hg10 mi
4:50 PM66 °FPassing clouds.5 mph43%30.33 "HgN/A
3:50 PM66 °FPassing clouds.6 mph46%30.33 "HgN/A
2:50 PM64 °FPassing clouds.6 mph49%30.36 "HgN/A
1:50 PM64 °FPassing clouds.5 mph49%30.39 "HgN/A
12:50 PM64 °FPassing clouds.3 mph46%30.39 "HgN/A
11:50 AM61 °FSunny.3 mph59%30.39 "Hg10 mi
10:50 AM55 °FSunny.1 mph72%30.39 "Hg10 mi
9:50 AM50 °FSunny.2 mph88%30.39 "Hg10 mi
8:50 AM45 °FFog.No wind93%30.39 "HgN/A
7:50 AM39 °FSleet. Fog.No wind93%30.39 "HgN/A
6:50 AM37 °FFog.No wind87%30.39 "Hg4 mi
5:50 AM37 °FChilly.No wind93%30.39 "HgN/A
4:50 AM39 °FLight fog.No wind87%30.42 "HgN/A
3:50 AM39 °FFog.No wind93%30.42 "HgN/A
2:50 AM39 °FFog.No wind93%30.42 "Hg5 mi
1:50 AM41 °FQuite cool.No wind87%30.42 "HgN/A
12:50 AM41 °FQuite cool.No wind87%30.39 "HgN/A
11:50 PM
Sep 16
41 °FQuite cool.No wind93%30.39 "HgN/A
Weather by CustomWeather, © 2014

See weather overviewHow to use our weather pages